GW4545 Weather Reports


time (UTC)temp
C
wind
direction
speed
KPH
gust
KPH
rain 1hr
cm
rain 24hr
cm
rain mn
cm
humidity
%
barometer
mb
20260508220043 18 22 3.2 12.9 0.00 0.00 0.00 56 1022.6
20260508214541 18 16 4.8 9.7 0.00 0.00 0.00 55 1022.6
20260508213049 18 186 3.2 9.7 0.00 0.00 0.00 55 1022.7
20260508211543 17 0 1.6 8.0 0.00 0.00 0.00 57 1022.8
20260508210043 16 0 1.6 8.0 0.00 0.00 0.00 58 1022.8
20260508204550 16 38 3.2 9.7 0.00 0.00 0.00 59 1022.8
20260508203054 16 59 3.2 11.3 0.00 0.00 0.00 62 1022.8
20260508201544 16 329 1.6 14.5 0.00 0.00 0.00 59 1022.8
20260508200049 16 341 3.2 14.5 0.00 0.00 0.00 62 1023.1
20260508194552 15 254 6.4 14.5 0.00 0.00 0.00 60 1023.0
20260508193048 15 323 3.2 14.5 0.00 0.00 0.00 63 1023.0
20260508191552 15 340 3.2 14.5 0.00 0.00 0.00 64 1023.0
20260508190044 13 346 4.8 11.3 0.00 0.00 0.00 64 1022.9
20260508184547 13 5 3.2 17.7 0.00 0.00 0.00 64 1022.9
20260508183041 13 315 9.7 19.3 0.00 0.00 0.00 64 1023.0
20260508181548 13 17 6.4 16.1 0.00 0.00 0.00 65 1023.0
20260508180048 13 46 4.8 14.5 0.00 0.00 0.00 67 1022.9
20260508174558 13 352 3.2 9.7 0.00 0.00 0.00 71 1022.8
20260508173040 13 338 3.2 6.4 0.00 0.00 0.00 68 1022.7
20260508171541 13 134 3.2 8.0 0.00 0.00 0.00 69 1022.4
20260508170049 12 343 4.8 9.7 0.00 0.00 0.00 71 1022.3
20260508164549 12 0 1.6 4.8 0.00 0.00 0.00 71 1022.4
20260508163048 12 130 1.6 6.4 0.00 0.00 0.00 75 1022.2
20260508161546 11 319 1.6 6.4 0.00 0.00 0.00 75 1022.2
20260508160049 11 0 0.0 3.2 0.00 0.00 0.00 77 1022.0
20260508154548 11 0 0.0 3.2 0.00 0.00 0.00 78 1022.0
20260508153043 11 0 0.0 3.2 0.00 0.00 0.00 79 1022.0
20260508151545 10 80 1.6 4.8 0.00 0.00 0.00 84 1021.6
20260508150048 9 0 0.0 3.2 0.00 0.00 0.00 86 1021.4
20260508144550 8 194 0.0 1.6 0.00 0.00 0.00 87 1021.3
20260508143051 8 200 0.0 4.8 0.00 0.00 0.00 87 1021.3
20260508141543 8 0 0.0 0.0 0.00 0.00 0.00 87 1021.2
20260508140047 8 0 0.0 1.6 0.00 0.00 0.00 89 1021.2
20260508134547 7 176 1.6 4.8 0.00 0.00 0.00 87 1021.0
20260508133055 7 176 1.6 4.8 0.00 0.00 0.00 85 1020.6
20260508131550 8 135 1.6 6.4 0.00 0.00 0.00 83 1020.3
20260508124551 8 352 1.6 8.0 0.00 0.00 0.00 80 1020.0
20260508123056 8 348 3.2 12.9 0.00 0.00 0.00 78 1019.7
20260508121548 8 280 6.4 14.5 0.00 0.00 0.00 78 1019.5
20260508120049 8 11 3.2 12.9 0.00 0.00 0.00 81 1019.6
20260508114551 7 331 3.2 16.1 0.00 0.00 0.00 88 1019.5
20260508113044 7 261 0.0 1.6 0.00 0.00 0.00 92 1019.4
20260508111548 7 0 1.6 4.8 0.00 0.00 0.00 92 1019.4
20260508110050 7 0 0.0 3.2 0.00 0.00 0.00 92 1018.9
20260508104552 7 261 1.6 3.2 0.00 0.00 0.00 92 1018.8
20260508103050 7 0 0.0 1.6 0.00 0.00 0.00 92 1018.6
20260508101547 7 0 0.0 1.6 0.00 0.00 0.00 91 1018.5
20260508100043 7 0 1.6 3.2 0.00 0.00 0.00 90 1018.4
20260508094547 8 261 1.6 4.8 0.00 0.00 0.00 91 1018.3
20260508093054 7 261 1.6 3.2 0.00 0.00 0.00 92 1018.2
20260508091557 7 261 1.6 4.8 0.00 0.00 0.00 92 1018.1
20260508090059 7 0 0.0 3.2 0.00 0.00 0.00 90 1018.0
20260508084547 8 0 0.0 3.2 0.00 0.00 0.00 89 1017.9
20260508083044 8 0 0.0 3.2 0.00 0.00 0.00 89 1017.9
20260508081555 8 244 3.2 4.8 0.00 0.00 0.00 88 1017.8
20260508080052 8 244 1.6 4.8 0.00 0.00 0.00 87 1017.8
20260508074549 9 0 0.0 3.2 0.00 0.00 0.00 86 1017.8
20260508073054 10 247 1.6 3.2 0.00 0.00 0.00 83 1017.8
20260508071555 10 263 1.6 4.8 0.00 0.00 0.00 82 1017.8
20260508070056 10 236 1.6 4.8 0.00 0.00 0.00 84 1017.7
20260508064544 10 236 1.6 4.8 0.00 0.00 0.00 85 1017.7
20260508063043 10 236 3.2 4.8 0.00 0.00 0.00 83 1017.7
20260508061548 10 242 1.6 6.4 0.00 0.00 0.00 82 1017.7
20260508060048 11 222 1.6 4.8 0.00 0.00 0.00 82 1017.9
20260508054550 11 273 1.6 3.2 0.00 0.00 0.00 79 1017.9
20260508053051 12 0 0.0 3.2 0.00 0.00 0.00 78 1018.1
20260508051545 12 294 0.0 6.4 0.00 0.00 0.00 76 1018.0
20260508050043 13 271 4.8 11.3 0.00 0.00 0.00 75 1017.8
20260508044548 13 102 3.2 6.4 0.00 0.00 0.00 76 1017.8
20260508043048 13 146 1.6 8.0 0.00 0.00 0.00 76 1017.8
20260508041547 13 225 3.2 8.0 0.00 0.00 0.00 78 1017.9
20260508040045 14 269 1.6 4.8 0.00 0.00 0.00 76 1017.6
20260508034543 15 300 0.0 6.4 0.00 0.00 0.00 71 1017.5
20260508033106 15 262 1.6 4.8 0.00 0.00 0.00 72 1017.4
20260508031547 16 265 1.6 6.4 0.00 0.00 0.00 73 1017.3
20260508030100 16 251 3.2 6.4 0.00 0.00 0.00 72 1017.3
20260508024550 18 246 1.6 4.8 0.00 0.00 0.00 69 1017.0
20260508023042 19 269 1.6 4.8 0.00 0.00 0.00 66 1017.1
20260508021547 20 161 0.0 3.2 0.00 0.00 0.00 59 1017.0
20260508020104 20 161 1.6 4.8 0.00 0.00 0.00 57 1017.0
20260508014554 21 90 3.2 6.4 0.00 0.00 0.00 55 1017.1
20260508013056 21 103 0.0 4.8 0.00 0.00 0.00 56 1017.3
20260508011545 21 63 0.0 3.2 0.00 0.00 0.00 53 1017.4
20260508010041 21 0 1.6 6.4 0.00 0.00 0.00 56 1017.6
20260508004542 20 63 1.6 6.4 0.00 0.00 0.00 57 1017.6
20260508003045 20 87 1.6 9.7 0.00 0.00 0.00 60 1017.7
20260508001552 20 0 3.2 9.7 0.00 0.00 0.00 56 1017.8
20260508000048 20 24 3.2 14.5 0.00 0.00 0.00 56 1017.9
20260507234542 20 89 1.6 12.9 0.00 0.00 0.00 55 1017.9
20260507233049 20 19 4.8 12.9 0.00 0.00 0.00 55 1018.3
20260507231547 20 81 3.2 11.3 0.00 0.00 0.00 54 1018.4
20260507230052 20 97 4.8 11.3 0.00 0.00 0.00 59 1018.7
20260507224543 19 360 3.2 9.7 0.00 0.00 0.00 56 1018.9
20260507223048 18 53 4.8 9.7 0.00 0.00 0.00 58 1019.0
20260507221542 18 42 4.8 12.9 0.00 0.00 0.00 61 1019.2